Year,Month,Day,Hour,Minute,Value (Times are PST for temperature in C)
2011,01,17,00,00,10.20
2011,01,17,00,01,10.20
2011,01,17,00,02,10.20
2011,01,17,00,03,10.20
2011,01,17,00,04,10.20
2011,01,17,00,05,10.30
2011,01,17,00,06,10.30
2011,01,17,00,07,10.30
2011,01,17,00,08,10.30
2011,01,17,00,09,10.30
2011,01,17,00,10,10.30
2011,01,17,00,11,10.30
2011,01,17,00,12,10.30
2011,01,17,00,13,10.30
2011,01,17,00,14,10.30
2011,01,17,00,15,10.40
2011,01,17,00,16,10.40
2011,01,17,00,17,10.40
2011,01,17,00,18,10.40
2011,01,17,00,19,10.40
2011,01,17,00,20,10.40
2011,01,17,00,21,10.40
2011,01,17,00,22,10.40
2011,01,17,00,23,10.40
2011,01,17,00,24,10.40
2011,01,17,00,25,10.40
2011,01,17,00,26,10.40
2011,01,17,00,27,10.40
2011,01,17,00,28,10.40
2011,01,17,00,29,10.40
2011,01,17,00,30,10.40
2011,01,17,00,31,10.40
2011,01,17,00,32,10.40
2011,01,17,00,33,10.40
2011,01,17,00,34,10.40
2011,01,17,00,35,10.40
2011,01,17,00,36,10.40
2011,01,17,00,37,10.40
2011,01,17,00,38,10.40
2011,01,17,00,39,10.30
2011,01,17,00,40,10.30
2011,01,17,00,41,10.30
2011,01,17,00,42,10.30
2011,01,17,00,43,10.30
2011,01,17,00,44,10.30
2011,01,17,00,45,10.30
2011,01,17,00,46,10.30
2011,01,17,00,47,10.30
2011,01,17,00,48,10.30
2011,01,17,00,49,10.30
2011,01,17,00,50,10.30
2011,01,17,00,51,10.30
2011,01,17,00,52,10.30
2011,01,17,00,53,10.30
2011,01,17,00,54,10.30
2011,01,17,00,55,10.30
2011,01,17,00,56,10.30
2011,01,17,00,57,10.30
2011,01,17,00,58,10.30
2011,01,17,00,59,10.30
2011,01,17,01,00,10.30
2011,01,17,01,01,10.30
2011,01,17,01,02,10.30
2011,01,17,01,03,10.30
2011,01,17,01,04,10.30
2011,01,17,01,05,10.30
2011,01,17,01,06,10.30
2011,01,17,01,07,10.30
2011,01,17,01,08,10.30
2011,01,17,01,09,10.20
2011,01,17,01,10,10.20
2011,01,17,01,11,10.20
2011,01,17,01,12,10.30
2011,01,17,01,13,10.30
2011,01,17,01,14,10.30
2011,01,17,01,15,10.20
2011,01,17,01,16,10.20
2011,01,17,01,17,10.20
2011,01,17,01,18,10.20
2011,01,17,01,19,10.30
2011,01,17,01,20,10.30
2011,01,17,01,21,10.30
2011,01,17,01,22,10.30
2011,01,17,01,23,10.30
2011,01,17,01,24,10.30
2011,01,17,01,25,10.30
2011,01,17,01,26,10.30
2011,01,17,01,27,10.30
2011,01,17,01,28,10.30
2011,01,17,01,29,10.30
2011,01,17,01,30,10.30
2011,01,17,01,31,10.30
2011,01,17,01,32,10.30
2011,01,17,01,33,10.30
2011,01,17,01,34,10.20
2011,01,17,01,35,10.20
2011,01,17,01,36,10.20
2011,01,17,01,37,10.20
2011,01,17,01,38,10.20
2011,01,17,01,39,10.20
2011,01,17,01,40,10.20
2011,01,17,01,41,10.20
2011,01,17,01,42,10.20
2011,01,17,01,43,10.20
2011,01,17,01,44,10.30
2011,01,17,01,45,10.30
2011,01,17,01,46,10.30
2011,01,17,01,47,10.30
2011,01,17,01,48,10.30
2011,01,17,01,49,10.20
2011,01,17,01,50,10.20
2011,01,17,01,51,10.20
2011,01,17,01,52,10.20
2011,01,17,01,53,10.20
2011,01,17,01,54,10.20
2011,01,17,01,55,10.20
2011,01,17,01,56,10.20
2011,01,17,01,57,10.30
2011,01,17,01,58,10.30
2011,01,17,01,59,10.30
2011,01,17,02,00,10.30
2011,01,17,02,01,10.30
2011,01,17,02,02,10.30
2011,01,17,02,03,10.30
2011,01,17,02,04,10.30
2011,01,17,02,05,10.30
2011,01,17,02,06,10.40
2011,01,17,02,07,10.40
2011,01,17,02,08,10.40
2011,01,17,02,09,10.30
2011,01,17,02,10,10.30
2011,01,17,02,11,10.30
2011,01,17,02,12,10.30
2011,01,17,02,13,10.20
2011,01,17,02,14,10.20
2011,01,17,02,15,10.20
2011,01,17,02,16,10.20
2011,01,17,02,17,10.20
2011,01,17,02,18,10.20
2011,01,17,02,19,10.20
2011,01,17,02,20,10.20
2011,01,17,02,21,10.20
2011,01,17,02,22,10.20
2011,01,17,02,23,10.20
2011,01,17,02,24,10.20
2011,01,17,02,25,10.20
2011,01,17,02,26,10.10
2011,01,17,02,27,10.10
2011,01,17,02,28,10.10
2011,01,17,02,29,10.10
2011,01,17,02,30,10.10
2011,01,17,02,31,10.10
2011,01,17,02,32,10.10
2011,01,17,02,33,10.10
2011,01,17,02,34,10.10
2011,01,17,02,35,10.20
2011,01,17,02,36,10.10
2011,01,17,02,37,10.10
2011,01,17,02,38,10.10
2011,01,17,02,39,10.20
2011,01,17,02,40,10.20
2011,01,17,02,41,10.20
2011,01,17,02,42,10.20
2011,01,17,02,43,10.10
2011,01,17,02,44,10.10
2011,01,17,02,45,10.10
2011,01,17,02,46,10.10
2011,01,17,02,47,10.10
2011,01,17,02,48,10.10
2011,01,17,02,49,10.10
2011,01,17,02,50,10.10
2011,01,17,02,51,10.10
2011,01,17,02,52,10.10
2011,01,17,02,53,10.10
2011,01,17,02,54,10.10
2011,01,17,02,55,10.10
2011,01,17,02,56,10.10
2011,01,17,02,57,10.10
2011,01,17,02,58,10.10
2011,01,17,02,59,10.00
2011,01,17,03,00,9.90
2011,01,17,03,01,9.90
2011,01,17,03,02,9.90
2011,01,17,03,03,9.90
2011,01,17,03,04,9.90
2011,01,17,03,05,9.90
2011,01,17,03,06,9.90
2011,01,17,03,07,9.90
2011,01,17,03,08,9.90
2011,01,17,03,09,9.90
2011,01,17,03,10,9.90
2011,01,17,03,11,9.90
2011,01,17,03,12,9.90
2011,01,17,03,13,9.90
2011,01,17,03,14,9.90
2011,01,17,03,15,9.90
2011,01,17,03,16,9.90
2011,01,17,03,17,9.90
2011,01,17,03,18,9.90
2011,01,17,03,19,10.00
2011,01,17,03,20,10.10
2011,01,17,03,21,10.10
2011,01,17,03,22,10.10
2011,01,17,03,23,10.10
2011,01,17,03,24,10.10
2011,01,17,03,25,10.10
2011,01,17,03,26,10.00
2011,01,17,03,27,9.90
2011,01,17,03,28,9.90
2011,01,17,03,29,9.90
2011,01,17,03,30,9.90
2011,01,17,03,31,9.90
2011,01,17,03,32,9.90
2011,01,17,03,33,9.90
2011,01,17,03,34,9.90
2011,01,17,03,35,9.90
2011,01,17,03,36,9.90
2011,01,17,03,37,9.90
2011,01,17,03,38,9.90
2011,01,17,03,39,9.90
2011,01,17,03,40,9.90
2011,01,17,03,41,9.90
2011,01,17,03,42,9.90
2011,01,17,03,43,9.90
2011,01,17,03,44,9.90
2011,01,17,03,45,9.90
2011,01,17,03,46,9.90
2011,01,17,03,47,9.90
2011,01,17,03,48,9.90
2011,01,17,03,49,9.90
2011,01,17,03,50,9.80
2011,01,17,03,51,9.80
2011,01,17,03,52,9.80
2011,01,17,03,53,9.80
2011,01,17,03,54,9.80
2011,01,17,03,55,9.80
2011,01,17,03,56,9.80
2011,01,17,03,57,9.80
2011,01,17,03,58,9.80
2011,01,17,03,59,9.80
2011,01,17,04,00,9.80
2011,01,17,04,01,9.80
2011,01,17,04,02,9.80
2011,01,17,04,03,9.80
2011,01,17,04,04,9.80
2011,01,17,04,05,9.80
2011,01,17,04,06,9.80
2011,01,17,04,07,9.80
2011,01,17,04,08,9.80
2011,01,17,04,09,9.80
2011,01,17,04,10,9.80
2011,01,17,04,11,9.70
2011,01,17,04,12,9.70
2011,01,17,04,13,9.70
2011,01,17,04,14,9.60
2011,01,17,04,15,9.60
2011,01,17,04,16,9.60
2011,01,17,04,17,9.60
2011,01,17,04,18,9.60
2011,01,17,04,19,9.60
2011,01,17,04,20,9.60
2011,01,17,04,21,9.60
2011,01,17,04,22,9.60
2011,01,17,04,23,9.60
2011,01,17,04,24,9.50
2011,01,17,04,25,9.50
2011,01,17,04,26,9.50
2011,01,17,04,27,9.50
2011,01,17,04,28,9.50
2011,01,17,04,29,9.50
2011,01,17,04,30,9.40
2011,01,17,04,31,9.40
2011,01,17,04,32,9.30
2011,01,17,04,33,9.30
2011,01,17,04,34,9.30
2011,01,17,04,35,9.20
2011,01,17,04,36,9.20
2011,01,17,04,37,9.20
2011,01,17,04,38,9.20
2011,01,17,04,39,9.10
2011,01,17,04,40,9.10
2011,01,17,04,41,9.10
2011,01,17,04,42,9.00
2011,01,17,04,43,9.00
2011,01,17,04,44,9.00
2011,01,17,04,45,9.00
2011,01,17,04,46,8.90
2011,01,17,04,47,8.90
2011,01,17,04,48,8.90
2011,01,17,04,49,8.90
2011,01,17,04,50,8.90
2011,01,17,04,51,8.90
2011,01,17,04,52,8.80
2011,01,17,04,53,8.90
2011,01,17,04,54,8.90
2011,01,17,04,55,8.90
2011,01,17,04,56,8.90
2011,01,17,04,57,8.90
2011,01,17,04,58,8.90
2011,01,17,04,59,8.90
2011,01,17,05,00,8.90
2011,01,17,05,01,9.00
2011,01,17,05,02,9.00
2011,01,17,05,03,9.10
2011,01,17,05,04,9.20
2011,01,17,05,05,9.30
2011,01,17,05,06,9.30
2011,01,17,05,07,9.40
2011,01,17,05,08,9.40
2011,01,17,05,09,9.40
2011,01,17,05,10,9.50
2011,01,17,05,11,9.50
2011,01,17,05,12,9.50
2011,01,17,05,13,9.50
2011,01,17,05,14,9.60
2011,01,17,05,15,9.60
2011,01,17,05,16,9.60
2011,01,17,05,17,9.60
2011,01,17,05,18,9.60
2011,01,17,05,19,9.70
2011,01,17,05,20,9.70
2011,01,17,05,21,9.70
2011,01,17,05,22,9.70
2011,01,17,05,23,9.70
2011,01,17,05,24,9.70
2011,01,17,05,25,9.70
2011,01,17,05,26,9.70
2011,01,17,05,27,9.70
2011,01,17,05,28,9.70
2011,01,17,05,29,9.70
2011,01,17,05,30,9.70
2011,01,17,05,31,9.70
2011,01,17,05,32,9.70
2011,01,17,05,33,9.70
2011,01,17,05,34,9.70
2011,01,17,05,35,9.70
2011,01,17,05,36,9.70
2011,01,17,05,37,9.70
2011,01,17,05,38,9.70
2011,01,17,05,39,9.70
2011,01,17,05,40,9.70
2011,01,17,05,41,9.70
2011,01,17,05,42,9.70
2011,01,17,05,43,9.70
2011,01,17,05,44,9.70
2011,01,17,05,45,9.70
2011,01,17,05,46,9.70
2011,01,17,05,47,9.70
2011,01,17,05,48,9.70
2011,01,17,05,49,9.70
2011,01,17,05,50,9.70
2011,01,17,05,51,9.60
2011,01,17,05,52,9.60
2011,01,17,05,53,9.60
2011,01,17,05,54,9.60
2011,01,17,05,55,9.60
2011,01,17,05,56,9.60
2011,01,17,05,57,9.60
2011,01,17,05,58,9.50
2011,01,17,05,59,9.50
2011,01,17,06,00,9.50
2011,01,17,06,01,9.50
2011,01,17,06,02,9.50
2011,01,17,06,03,9.50
2011,01,17,06,04,9.50
2011,01,17,06,05,9.40
2011,01,17,06,06,9.40
2011,01,17,06,07,9.40
2011,01,17,06,08,9.30
2011,01,17,06,09,9.30
2011,01,17,06,10,9.30
2011,01,17,06,11,9.30
2011,01,17,06,12,9.30
2011,01,17,06,13,9.30
2011,01,17,06,14,9.30
2011,01,17,06,15,9.40
2011,01,17,06,16,9.30
2011,01,17,06,17,9.30
2011,01,17,06,18,9.30
2011,01,17,06,19,9.30
2011,01,17,06,20,9.40
2011,01,17,06,21,9.40
2011,01,17,06,22,9.40
2011,01,17,06,23,9.40
2011,01,17,06,24,9.50
2011,01,17,06,25,9.50
2011,01,17,06,26,9.50
2011,01,17,06,27,9.50
2011,01,17,06,28,9.60
2011,01,17,06,29,9.60
2011,01,17,06,30,9.60
2011,01,17,06,31,9.60
2011,01,17,06,32,9.60
2011,01,17,06,33,9.60
2011,01,17,06,34,9.70
2011,01,17,06,35,9.70
2011,01,17,06,36,9.70
2011,01,17,06,37,9.70
2011,01,17,06,38,9.70
2011,01,17,06,39,9.70
2011,01,17,06,40,9.70
2011,01,17,06,41,9.70
2011,01,17,06,42,9.70
2011,01,17,06,43,9.80
2011,01,17,06,44,9.80
2011,01,17,06,45,9.80
2011,01,17,06,46,9.80
2011,01,17,06,47,9.80
2011,01,17,06,48,9.80
2011,01,17,06,49,9.80
2011,01,17,06,50,9.80
2011,01,17,06,51,9.80
2011,01,17,06,52,9.70
2011,01,17,06,53,9.70
2011,01,17,06,54,9.70
2011,01,17,06,55,9.70
2011,01,17,06,56,9.70
2011,01,17,06,57,9.70
2011,01,17,06,58,9.80
2011,01,17,06,59,9.80
2011,01,17,07,00,9.80
2011,01,17,07,01,9.80
2011,01,17,07,02,9.80
2011,01,17,07,03,9.80
2011,01,17,07,04,9.80
2011,01,17,07,05,9.80
2011,01,17,07,06,9.80
2011,01,17,07,07,9.80
2011,01,17,07,08,9.70
2011,01,17,07,09,9.70
2011,01,17,07,10,9.70
2011,01,17,07,11,9.70
2011,01,17,07,12,9.70
2011,01,17,07,13,9.70
2011,01,17,07,14,9.70
2011,01,17,07,15,9.70
2011,01,17,07,16,9.70
2011,01,17,07,17,9.70
2011,01,17,07,18,9.70
2011,01,17,07,19,9.60
2011,01,17,07,20,9.60
2011,01,17,07,21,9.60
2011,01,17,07,22,9.60
2011,01,17,07,23,9.50
2011,01,17,07,24,9.50
2011,01,17,07,25,9.50
2011,01,17,07,26,9.50
2011,01,17,07,27,9.40
2011,01,17,07,28,9.40
2011,01,17,07,29,9.40
2011,01,17,07,30,9.30
2011,01,17,07,31,9.30
2011,01,17,07,32,9.20
2011,01,17,07,33,9.20
2011,01,17,07,34,9.20
2011,01,17,07,35,9.20
2011,01,17,07,36,9.10
2011,01,17,07,37,9.00
2011,01,17,07,38,9.00
2011,01,17,07,39,8.90
2011,01,17,07,40,8.90
2011,01,17,07,41,8.80
2011,01,17,07,42,8.80
2011,01,17,07,43,8.70
2011,01,17,07,44,8.70
2011,01,17,07,45,8.70
2011,01,17,07,46,8.70
2011,01,17,07,47,8.70
2011,01,17,07,48,8.70
2011,01,17,07,49,8.60
2011,01,17,07,50,8.60
2011,01,17,07,51,8.60
2011,01,17,07,52,8.50
2011,01,17,07,53,8.50
2011,01,17,07,54,8.50
2011,01,17,07,55,8.40
2011,01,17,07,56,8.40
2011,01,17,07,57,8.40
2011,01,17,07,58,8.40
2011,01,17,07,59,8.40
2011,01,17,08,00,8.40
2011,01,17,08,01,8.50
2011,01,17,08,02,8.50
2011,01,17,08,03,8.50
2011,01,17,08,04,8.50
2011,01,17,08,05,8.50
2011,01,17,08,06,8.50
2011,01,17,08,07,8.50
2011,01,17,08,08,8.60
2011,01,17,08,09,8.60
2011,01,17,08,10,8.60
2011,01,17,08,11,8.60
2011,01,17,08,12,8.70
2011,01,17,08,13,8.70
2011,01,17,08,14,8.70
2011,01,17,08,15,8.70
2011,01,17,08,16,8.70
2011,01,17,08,17,8.80
2011,01,17,08,18,8.80
2011,01,17,08,19,8.90
2011,01,17,08,20,9.00
2011,01,17,08,21,9.00
2011,01,17,08,22,9.00
2011,01,17,08,23,9.10
2011,01,17,08,24,9.10
2011,01,17,08,25,9.10
2011,01,17,08,26,9.10
2011,01,17,08,27,9.10
2011,01,17,08,28,9.10
2011,01,17,08,29,9.20
2011,01,17,08,30,9.20
2011,01,17,08,31,9.20
2011,01,17,08,32,9.20
2011,01,17,08,33,9.20
2011,01,17,08,34,9.10
2011,01,17,08,35,9.10
2011,01,17,08,36,9.10
2011,01,17,08,37,9.10
2011,01,17,08,38,9.10
2011,01,17,08,39,9.10
2011,01,17,08,40,9.00
2011,01,17,08,41,9.00
2011,01,17,08,42,9.10
2011,01,17,08,43,9.10
2011,01,17,08,44,9.10
2011,01,17,08,45,9.20
2011,01,17,08,46,9.20
2011,01,17,08,47,9.20
2011,01,17,08,48,9.30
2011,01,17,08,49,9.40
2011,01,17,08,50,9.40
2011,01,17,08,51,9.40
2011,01,17,08,52,9.50
2011,01,17,08,53,9.50
2011,01,17,08,54,9.60
2011,01,17,08,55,9.60
2011,01,17,08,56,9.60
2011,01,17,08,57,9.70
2011,01,17,08,58,9.70
2011,01,17,08,59,9.70
2011,01,17,09,00,9.70
2011,01,17,09,01,9.70
2011,01,17,09,02,9.70
2011,01,17,09,03,9.70
2011,01,17,09,04,9.70
2011,01,17,09,05,9.70
2011,01,17,09,06,9.70
2011,01,17,09,07,9.70
2011,01,17,09,08,9.70
2011,01,17,09,09,9.70
2011,01,17,09,10,9.70
2011,01,17,09,11,9.80
2011,01,17,09,12,9.80
2011,01,17,09,13,9.80
2011,01,17,09,14,9.80
2011,01,17,09,15,9.80
2011,01,17,09,16,9.90
2011,01,17,09,17,9.90
2011,01,17,09,18,9.90
2011,01,17,09,19,9.90
2011,01,17,09,20,9.90
2011,01,17,09,21,9.90
2011,01,17,09,22,9.90
2011,01,17,09,23,9.90
2011,01,17,09,24,9.90
2011,01,17,09,25,9.90
2011,01,17,09,26,9.90
2011,01,17,09,27,9.90
2011,01,17,09,28,9.90
2011,01,17,09,29,9.90
2011,01,17,09,30,9.90
2011,01,17,09,31,9.90
2011,01,17,09,32,10.10
2011,01,17,09,33,10.10
2011,01,17,09,34,10.10
2011,01,17,09,35,10.00
2011,01,17,09,36,9.90
2011,01,17,09,37,9.90
2011,01,17,09,38,9.90
2011,01,17,09,39,9.90
2011,01,17,09,40,9.90
2011,01,17,09,41,9.90
2011,01,17,09,42,9.90
2011,01,17,09,43,9.80
2011,01,17,09,44,9.80
2011,01,17,09,45,9.80
2011,01,17,09,46,9.70
2011,01,17,09,47,9.70
2011,01,17,09,48,9.70
2011,01,17,09,49,9.70
2011,01,17,09,50,9.70
2011,01,17,09,51,9.70
2011,01,17,09,52,9.70
2011,01,17,09,53,9.70
2011,01,17,09,54,9.70
2011,01,17,09,55,9.70
2011,01,17,09,56,9.70
2011,01,17,09,57,9.70
2011,01,17,09,58,9.70
2011,01,17,09,59,9.70
2011,01,17,10,00,9.70
2011,01,17,10,01,9.70
2011,01,17,10,02,9.70
2011,01,17,10,03,9.70
2011,01,17,10,04,9.70
2011,01,17,10,05,9.70
2011,01,17,10,06,9.60
2011,01,17,10,07,9.60
2011,01,17,10,08,9.50
2011,01,17,10,09,9.50
2011,01,17,10,10,9.40
2011,01,17,10,11,9.40
2011,01,17,10,12,9.30
2011,01,17,10,13,9.30
2011,01,17,10,14,9.30
2011,01,17,10,15,9.30
2011,01,17,10,16,9.30
2011,01,17,10,17,9.30
2011,01,17,10,18,9.40
2011,01,17,10,19,9.40
2011,01,17,10,20,9.40
2011,01,17,10,21,9.50
2011,01,17,10,22,9.50
2011,01,17,10,23,9.50
2011,01,17,10,24,9.60
2011,01,17,10,25,9.60
2011,01,17,10,26,9.60
2011,01,17,10,27,9.70
2011,01,17,10,28,9.70
2011,01,17,10,29,9.70
2011,01,17,10,30,9.80
2011,01,17,10,31,9.80
2011,01,17,10,32,9.80
2011,01,17,10,33,9.90
2011,01,17,10,34,9.90
2011,01,17,10,35,9.90
2011,01,17,10,36,9.90
2011,01,17,10,37,9.90
2011,01,17,10,38,9.90
2011,01,17,10,39,9.90
2011,01,17,10,40,9.90
2011,01,17,10,41,10.00
2011,01,17,10,42,10.10
2011,01,17,10,43,10.10
2011,01,17,10,44,10.10
2011,01,17,10,45,10.20
2011,01,17,10,46,10.20
2011,01,17,10,47,10.30
2011,01,17,10,48,10.40
2011,01,17,10,49,10.50
2011,01,17,10,50,10.60
2011,01,17,10,51,10.60
2011,01,17,10,52,10.70
2011,01,17,10,53,10.70
2011,01,17,10,54,10.80
2011,01,17,10,55,10.90
2011,01,17,10,56,11.00
2011,01,17,10,57,11.10
2011,01,17,10,58,11.10
2011,01,17,10,59,11.10
2011,01,17,11,00,11.10
2011,01,17,11,01,11.20
2011,01,17,11,02,11.20
2011,01,17,11,03,11.20
2011,01,17,11,04,11.20
2011,01,17,11,05,11.20
2011,01,17,11,06,11.20
2011,01,17,11,07,11.30
2011,01,17,11,08,11.30
2011,01,17,11,09,11.30
2011,01,17,11,10,11.30
2011,01,17,11,11,11.30
2011,01,17,11,12,11.30
2011,01,17,11,13,11.40
2011,01,17,11,14,11.40
2011,01,17,11,15,11.40
2011,01,17,11,16,11.40
2011,01,17,11,17,11.40
2011,01,17,11,18,11.40
2011,01,17,11,19,11.40
2011,01,17,11,20,11.40
2011,01,17,11,21,11.40
2011,01,17,11,22,11.40
2011,01,17,11,23,11.40
2011,01,17,11,24,11.40
2011,01,17,11,25,11.40
2011,01,17,11,26,11.40
2011,01,17,11,27,11.50
2011,01,17,11,28,11.60
2011,01,17,11,29,11.60
2011,01,17,11,30,11.60
2011,01,17,11,31,11.60
2011,01,17,11,32,11.60
2011,01,17,11,33,11.60
2011,01,17,11,34,11.60
2011,01,17,11,35,11.60
2011,01,17,11,36,11.60
2011,01,17,11,37,11.40
2011,01,17,11,38,11.40
2011,01,17,11,39,11.40
2011,01,17,11,40,11.40
2011,01,17,11,41,11.40
2011,01,17,11,42,11.40
2011,01,17,11,43,11.40
2011,01,17,11,44,11.40
2011,01,17,11,45,11.40
2011,01,17,11,46,11.40
2011,01,17,11,47,11.30
2011,01,17,11,48,11.30
2011,01,17,11,49,11.20
2011,01,17,11,50,11.10
2011,01,17,11,51,11.10
2011,01,17,11,52,11.10
2011,01,17,11,53,11.10
2011,01,17,11,54,11.10
2011,01,17,11,55,11.10
2011,01,17,11,56,10.90
2011,01,17,11,57,10.80
2011,01,17,11,58,10.70
2011,01,17,11,59,10.60
2011,01,17,12,00,10.60
2011,01,17,12,01,10.50
2011,01,17,12,02,10.40
2011,01,17,12,03,10.30
2011,01,17,12,04,10.20
2011,01,17,12,05,10.10
2011,01,17,12,06,10.10
2011,01,17,12,07,10.00
2011,01,17,12,08,9.90
2011,01,17,12,09,9.90
2011,01,17,12,10,9.90
2011,01,17,12,11,9.90
2011,01,17,12,12,9.90
2011,01,17,12,13,9.90
2011,01,17,12,14,9.90
2011,01,17,12,15,9.90
2011,01,17,12,16,9.90
2011,01,17,12,17,9.90
2011,01,17,12,18,9.80
2011,01,17,12,19,9.80
2011,01,17,12,20,9.80
2011,01,17,12,21,9.80
2011,01,17,12,22,9.70
2011,01,17,12,23,9.70
2011,01,17,12,24,9.70
2011,01,17,12,25,9.70
2011,01,17,12,26,9.70
2011,01,17,12,27,9.70
2011,01,17,12,28,9.70
2011,01,17,12,29,9.70
2011,01,17,12,30,9.70
2011,01,17,12,31,9.70
2011,01,17,12,32,9.70
2011,01,17,12,33,9.70
2011,01,17,12,34,9.70
2011,01,17,12,35,9.70
2011,01,17,12,36,9.70
2011,01,17,12,37,9.70
2011,01,17,12,38,9.70
2011,01,17,12,39,9.70
2011,01,17,12,40,9.70
2011,01,17,12,41,9.60
2011,01,17,12,42,9.60
2011,01,17,12,43,9.60
2011,01,17,12,44,9.60
2011,01,17,12,45,9.60
2011,01,17,12,46,9.60
2011,01,17,12,47,9.60
2011,01,17,12,48,9.60
2011,01,17,12,49,9.60
2011,01,17,12,50,9.70
2011,01,17,12,51,9.70
2011,01,17,12,52,9.70
2011,01,17,12,53,9.80
2011,01,17,12,54,9.90
2011,01,17,12,55,10.00
2011,01,17,12,56,10.10
2011,01,17,12,57,10.20
2011,01,17,12,58,10.20
2011,01,17,12,59,10.30
2011,01,17,13,00,10.30
2011,01,17,13,01,10.30
2011,01,17,13,02,10.30
2011,01,17,13,03,10.30
2011,01,17,13,04,10.30
2011,01,17,13,05,10.30
2011,01,17,13,06,10.30
2011,01,17,13,07,10.30
2011,01,17,13,08,10.30
2011,01,17,13,09,10.20
2011,01,17,13,10,10.20
2011,01,17,13,11,10.20
2011,01,17,13,12,10.20
2011,01,17,13,13,10.20
2011,01,17,13,14,10.20
2011,01,17,13,15,10.30
2011,01,17,13,16,10.30
2011,01,17,13,17,10.30
2011,01,17,13,18,10.30
2011,01,17,13,19,10.30
2011,01,17,13,20,10.30
2011,01,17,13,21,10.30
2011,01,17,13,22,10.20
2011,01,17,13,23,10.20
2011,01,17,13,24,10.20
2011,01,17,13,25,10.20
2011,01,17,13,26,10.30
2011,01,17,13,27,10.30
2011,01,17,13,28,10.30
2011,01,17,13,29,10.20
2011,01,17,13,30,10.20
2011,01,17,13,31,10.20
2011,01,17,13,32,10.20
2011,01,17,13,33,10.20
2011,01,17,13,34,10.20
2011,01,17,13,35,10.10
2011,01,17,13,36,10.10
2011,01,17,13,37,10.10
2011,01,17,13,38,10.20
2011,01,17,13,39,10.20
2011,01,17,13,40,10.30
2011,01,17,13,41,10.30
2011,01,17,13,42,10.30
2011,01,17,13,43,10.30
2011,01,17,13,44,10.20
2011,01,17,13,45,10.20
2011,01,17,13,46,10.20
2011,01,17,13,47,10.20
2011,01,17,13,48,10.10
2011,01,17,13,49,10.10
2011,01,17,13,50,10.10
2011,01,17,13,51,10.10
2011,01,17,13,52,10.10
2011,01,17,13,53,10.10
2011,01,17,13,54,10.10
2011,01,17,13,55,10.00
2011,01,17,13,56,9.90
2011,01,17,13,57,9.90
2011,01,17,13,58,9.90
2011,01,17,13,59,9.90
2011,01,17,14,00,9.90
2011,01,17,14,01,9.90
2011,01,17,14,02,9.90
2011,01,17,14,03,9.90
2011,01,17,14,04,9.90
2011,01,17,14,05,9.90
2011,01,17,14,06,10.00
2011,01,17,14,07,10.10
2011,01,17,14,08,10.10
2011,01,17,14,09,10.10
2011,01,17,14,10,10.00
2011,01,17,14,11,9.90
2011,01,17,14,12,9.90
2011,01,17,14,13,9.90
2011,01,17,14,14,9.80
2011,01,17,14,15,9.80
2011,01,17,14,16,9.70
2011,01,17,14,17,9.70
2011,01,17,14,18,9.70
2011,01,17,14,19,9.70
2011,01,17,14,20,9.70
2011,01,17,14,21,9.60
2011,01,17,14,22,9.60
2011,01,17,14,23,9.60
2011,01,17,14,24,9.60
2011,01,17,14,25,9.60
2011,01,17,14,26,9.50
2011,01,17,14,27,9.40
2011,01,17,14,28,9.40
2011,01,17,14,29,9.40
2011,01,17,14,30,9.40
2011,01,17,14,31,9.40
2011,01,17,14,32,9.40
2011,01,17,14,33,9.40
2011,01,17,14,34,9.40
2011,01,17,14,35,9.40
2011,01,17,14,36,9.40
2011,01,17,14,37,9.40
2011,01,17,14,38,9.30
2011,01,17,14,39,9.30
2011,01,17,14,40,9.30
2011,01,17,14,41,9.30
2011,01,17,14,42,9.30
2011,01,17,14,43,9.30
2011,01,17,14,44,9.20
2011,01,17,14,45,9.20
2011,01,17,14,46,9.20
2011,01,17,14,47,9.20
2011,01,17,14,48,9.10
2011,01,17,14,49,9.10
2011,01,17,14,50,9.10
2011,01,17,14,51,9.10
2011,01,17,14,52,9.10
2011,01,17,14,53,9.10
2011,01,17,14,54,9.10
2011,01,17,14,55,9.20
2011,01,17,14,56,9.20
2011,01,17,14,57,9.20
2011,01,17,14,58,9.20
2011,01,17,14,59,9.20
2011,01,17,15,00,9.20
2011,01,17,15,01,9.10
2011,01,17,15,02,9.10
2011,01,17,15,03,9.10
2011,01,17,15,04,9.00
2011,01,17,15,05,9.00
2011,01,17,15,06,9.00
2011,01,17,15,07,9.00
2011,01,17,15,08,8.90
2011,01,17,15,09,8.90
2011,01,17,15,10,8.90
2011,01,17,15,11,8.90
2011,01,17,15,12,8.90
2011,01,17,15,13,8.90
2011,01,17,15,14,8.80
2011,01,17,15,15,8.80
2011,01,17,15,16,8.80
2011,01,17,15,17,8.80
2011,01,17,15,18,8.80
2011,01,17,15,19,8.70
2011,01,17,15,20,8.70
2011,01,17,15,21,8.70
2011,01,17,15,22,8.60
2011,01,17,15,23,8.60
2011,01,17,15,24,8.60
2011,01,17,15,25,8.50
2011,01,17,15,26,8.50
2011,01,17,15,27,8.50
2011,01,17,15,28,8.40
2011,01,17,15,29,8.40
2011,01,17,15,30,8.40
2011,01,17,15,31,8.40
2011,01,17,15,32,8.40
2011,01,17,15,33,8.30
2011,01,17,15,34,8.30
2011,01,17,15,35,8.30
2011,01,17,15,36,8.20
2011,01,17,15,37,8.20
2011,01,17,15,38,8.20
2011,01,17,15,39,8.20
2011,01,17,15,40,8.20
2011,01,17,15,41,8.20
2011,01,17,15,42,8.20
2011,01,17,15,43,8.20
2011,01,17,15,44,8.10
2011,01,17,15,45,8.10
2011,01,17,15,46,8.10
2011,01,17,15,47,8.10
2011,01,17,15,48,8.10
2011,01,17,15,49,8.00
2011,01,17,15,50,8.00
2011,01,17,15,51,8.00
2011,01,17,15,52,8.00
2011,01,17,15,53,8.00
2011,01,17,15,54,7.90
2011,01,17,15,55,7.90
2011,01,17,15,56,7.90
2011,01,17,15,57,7.90
2011,01,17,15,58,7.90
2011,01,17,15,59,7.90
2011,01,17,16,00,7.80
2011,01,17,16,01,7.80
2011,01,17,16,02,7.80
2011,01,17,16,03,7.80
2011,01,17,16,04,7.80
2011,01,17,16,05,7.80
2011,01,17,16,06,7.80
2011,01,17,16,07,7.80
2011,01,17,16,08,7.80
2011,01,17,16,09,7.80
2011,01,17,16,10,7.80
2011,01,17,16,11,7.80
2011,01,17,16,12,7.80
2011,01,17,16,13,7.80
2011,01,17,16,14,7.80
2011,01,17,16,15,7.80
2011,01,17,16,16,7.80
2011,01,17,16,17,7.80
2011,01,17,16,18,7.80
2011,01,17,16,19,7.80
2011,01,17,16,20,7.80
2011,01,17,16,21,7.80
2011,01,17,16,22,7.80
2011,01,17,16,23,7.80
2011,01,17,16,24,7.80
2011,01,17,16,25,7.80
2011,01,17,16,26,7.80
2011,01,17,16,27,7.80
2011,01,17,16,28,7.70
2011,01,17,16,29,7.70
2011,01,17,16,30,7.70
2011,01,17,16,31,7.70
2011,01,17,16,32,7.70
2011,01,17,16,33,7.70
2011,01,17,16,34,7.60
2011,01,17,16,35,7.60
2011,01,17,16,36,7.60
2011,01,17,16,37,7.60
2011,01,17,16,38,7.60
2011,01,17,16,39,7.60
2011,01,17,16,40,7.60
2011,01,17,16,41,7.60
2011,01,17,16,42,7.60
2011,01,17,16,43,7.60
2011,01,17,16,44,7.50
2011,01,17,16,45,7.50
2011,01,17,16,46,7.50
2011,01,17,16,47,7.50
2011,01,17,16,48,7.50
2011,01,17,16,49,7.50
2011,01,17,16,50,7.50
2011,01,17,16,51,7.40
2011,01,17,16,52,7.40
2011,01,17,16,53,7.40
2011,01,17,16,54,7.40
2011,01,17,16,55,7.40
2011,01,17,16,56,7.30
2011,01,17,16,57,7.30
2011,01,17,16,58,7.30
2011,01,17,16,59,7.30
2011,01,17,17,00,7.30
2011,01,17,17,01,7.30
2011,01,17,17,02,7.20
2011,01,17,17,03,7.20
2011,01,17,17,04,7.20
2011,01,17,17,05,7.20
2011,01,17,17,06,7.20
2011,01,17,17,07,7.20
2011,01,17,17,08,7.20
2011,01,17,17,09,7.20
2011,01,17,17,10,7.20
2011,01,17,17,11,7.20
2011,01,17,17,12,7.20
2011,01,17,17,13,7.20
2011,01,17,17,14,7.20
2011,01,17,17,15,7.20
2011,01,17,17,16,7.20
2011,01,17,17,17,7.20
2011,01,17,17,18,7.20
2011,01,17,17,19,7.20
2011,01,17,17,20,7.20
2011,01,17,17,21,7.20
2011,01,17,17,22,7.20
2011,01,17,17,23,7.20
2011,01,17,17,24,7.20
2011,01,17,17,25,7.20
2011,01,17,17,26,7.20
2011,01,17,17,27,7.20
2011,01,17,17,28,7.20
2011,01,17,17,29,7.20
2011,01,17,17,30,7.20
2011,01,17,17,31,7.20
2011,01,17,17,32,7.20
2011,01,17,17,33,7.20
2011,01,17,17,34,7.20
2011,01,17,17,35,7.20
2011,01,17,17,36,7.20
2011,01,17,17,37,7.20
2011,01,17,17,38,7.20
2011,01,17,17,39,7.20
2011,01,17,17,40,7.20
2011,01,17,17,41,7.20
2011,01,17,17,42,7.20
2011,01,17,17,43,7.20
2011,01,17,17,44,7.20
2011,01,17,17,45,7.20
2011,01,17,17,46,7.20
2011,01,17,17,47,7.20
2011,01,17,17,48,7.20
2011,01,17,17,49,7.20
2011,01,17,17,50,7.20
2011,01,17,17,51,7.20